LOT3921 EPWA-EPKK

Flight info

Callsign LOT3921
Flight time 0h 30m
Altitude 21000
Route EVINA DCT KUKAM
Aircraft B738/M-SDE2E3FGHIRWXY/LB1

Departure

Time 2026-05-07 18:48
Airport Warsaw Chopin Airport (EPWA)

Arrival

Time 2026-05-07 19:18
Airport Kraków John Paul II International Airport (EPKK)
Time Latitude Longitude Altitude Speed Heading
2026-05-07 18:18 52.16913 20.97217 333 ft 0 kts 76°
2026-05-07 18:18 52.16914 20.97226 333 ft 0 kts 76°
2026-05-07 18:40 52.16913 20.97219 333 ft 3 kts 76°
2026-05-07 18:40 52.16907 20.97176 334 ft 4 kts 76°
2026-05-07 18:40 52.16900 20.97135 332 ft 3 kts 76°
2026-05-07 18:41 52.16897 20.97099 333 ft 4 kts 96°
2026-05-07 18:41 52.16906 20.97063 332 ft 4 kts 141°
2026-05-07 18:41 52.16923 20.97045 333 ft 0 kts 152°
2026-05-07 18:45 52.16900 20.97065 332 ft 11 kts 152°
2026-05-07 18:45 52.16825 20.97130 336 ft 13 kts 152°
2026-05-07 18:45 52.16743 20.97201 334 ft 15 kts 152°
2026-05-07 18:46 52.16646 20.97286 338 ft 16 kts 152°
2026-05-07 18:46 52.16580 20.97362 333 ft 10 kts 125°
2026-05-07 18:46 52.16548 20.97463 337 ft 11 kts 115°
2026-05-07 18:46 52.16501 20.97630 335 ft 19 kts 115°
2026-05-07 18:47 52.16454 20.97777 336 ft 11 kts 135°
2026-05-07 18:47 52.16385 20.97784 338 ft 10 kts 202°
2026-05-07 18:47 52.16322 20.97732 335 ft 10 kts 224°
2026-05-07 18:47 52.16322 20.97614 335 ft 15 kts 292°
2026-05-07 18:48 52.16460 20.97126 334 ft 83 kts 295°
2026-05-07 18:48 52.16793 20.95957 334 ft 143 kts 297°
2026-05-07 18:48 52.17290 20.94394 786 ft 158 kts 296°
2026-05-07 18:48 52.17741 20.92735 1525 ft 163 kts 296°
2026-05-07 18:49 52.18191 20.90981 2151 ft 173 kts 289°
2026-05-07 18:49 52.18249 20.88871 2467 ft 204 kts 258°
2026-05-07 18:49 52.17838 20.86533 2728 ft 226 kts 255°
2026-05-07 18:49 52.17441 20.83984 3119 ft 240 kts 258°
2026-05-07 18:50 52.17074 20.81196 3453 ft 259 kts 258°
2026-05-07 18:50 52.16699 20.78326 4324 ft 259 kts 258°
2026-05-07 18:50 52.16199 20.75450 5024 ft 267 kts 242°
2026-05-07 18:50 52.14946 20.73309 6031 ft 265 kts 211°
2026-05-07 18:51 52.13187 20.72304 6827 ft 269 kts 197°
2026-05-07 18:51 52.11395 20.71479 7702 ft 269 kts 198°
2026-05-07 18:51 52.09582 20.70616 8427 ft 274 kts 199°
2026-05-07 18:51 52.07768 20.69738 9182 ft 277 kts 199°
2026-05-07 18:52 52.05918 20.68835 9975 ft 279 kts 199°
2026-05-07 18:52 52.04025 20.67905 10448 ft 293 kts 199°
2026-05-07 18:52 52.02003 20.66905 10612 ft 316 kts 199°
2026-05-07 18:52 51.99828 20.65828 10797 ft 337 kts 199°
2026-05-07 18:53 51.97545 20.64700 11267 ft 346 kts 199°
2026-05-07 18:53 51.95227 20.63556 11971 ft 349 kts 198°
2026-05-07 18:53 51.92907 20.62413 12771 ft 349 kts 198°
2026-05-07 18:53 51.90572 20.61263 13552 ft 352 kts 198°
2026-05-07 18:54 51.88218 20.60103 14215 ft 356 kts 198°
2026-05-07 18:54 51.85840 20.58931 14906 ft 358 kts 198°
2026-05-07 18:54 51.83447 20.57753 15627 ft 361 kts 198°
2026-05-07 18:54 51.81038 20.56568 16322 ft 363 kts 198°
2026-05-07 18:55 51.78605 20.55373 17020 ft 367 kts 198°
2026-05-07 18:55 51.76152 20.54169 17702 ft 370 kts 198°
2026-05-07 18:55 51.73686 20.52960 18360 ft 373 kts 198°
2026-05-07 18:55 51.71192 20.51739 18960 ft 375 kts 198°
2026-05-07 18:56 51.68692 20.50516 19606 ft 375 kts 198°
2026-05-07 18:56 51.66186 20.49292 20253 ft 376 kts 198°
2026-05-07 18:56 51.63719 20.48089 20825 ft 376 kts 198°
2026-05-07 18:56 51.61186 20.46854 20951 ft 375 kts 198°
2026-05-07 18:57 51.58724 20.45656 20971 ft 372 kts 198°
2026-05-07 18:57 51.56230 20.44443 20978 ft 370 kts 198°
2026-05-07 18:57 51.53791 20.43257 20989 ft 371 kts 198°
2026-05-07 18:57 51.51287 20.42042 20982 ft 372 kts 198°
2026-05-07 18:58 51.48837 20.40854 20985 ft 373 kts 198°
2026-05-07 18:58 51.46354 20.39652 20983 ft 373 kts 197°
2026-05-07 18:58 51.43870 20.38449 20972 ft 373 kts 197°
2026-05-07 18:58 51.41378 20.37246 20979 ft 373 kts 197°
2026-05-07 18:59 51.38897 20.36049 20972 ft 372 kts 197°
2026-05-07 18:59 51.36421 20.34811 20968 ft 372 kts 198°
2026-05-07 18:59 51.33960 20.33535 20971 ft 372 kts 198°
2026-05-07 18:59 51.31501 20.32247 20967 ft 371 kts 198°
2026-05-07 19:00 51.29876 20.31395 20975 ft 371 kts 198°
2026-05-07 19:00 51.26594 20.29681 20979 ft 371 kts 198°
2026-05-07 19:00 51.24141 20.28406 20975 ft 371 kts 198°
2026-05-07 19:00 51.21694 20.27138 20975 ft 369 kts 198°
2026-05-07 19:01 51.19302 20.25901 20963 ft 354 kts 198°
2026-05-07 19:01 51.16999 20.24713 20958 ft 342 kts 198°
2026-05-07 19:01 51.14779 20.23569 20960 ft 337 kts 198°
2026-05-07 19:01 51.12561 20.22427 20949 ft 324 kts 198°
2026-05-07 19:02 51.10457 20.21346 20940 ft 311 kts 198°
2026-05-07 19:02 51.08419 20.20299 20743 ft 304 kts 198°
2026-05-07 19:02 51.06439 20.19283 20386 ft 301 kts 198°
2026-05-07 19:02 51.04426 20.18250 19429 ft 311 kts 198°
2026-05-07 19:03 51.02284 20.17152 18529 ft 329 kts 199°
2026-05-07 19:03 51.00124 20.16047 18316 ft 322 kts 199°
2026-05-07 19:03 50.98031 20.14978 18184 ft 312 kts 199°
2026-05-07 19:03 50.95997 20.13940 18028 ft 301 kts 199°
2026-05-07 19:04 50.94054 20.12949 17954 ft 284 kts 199°
2026-05-07 19:04 50.92224 20.12016 17826 ft 272 kts 199°
2026-05-07 19:04 50.90408 20.11089 17017 ft 280 kts 199°
2026-05-07 19:04 50.88471 20.10099 15874 ft 306 kts 199°
2026-05-07 19:05 50.86406 20.09047 15370 ft 311 kts 199°
2026-05-07 19:05 50.84344 20.08000 14924 ft 312 kts 199°
2026-05-07 19:05 50.82279 20.06953 14541 ft 311 kts 199°
2026-05-07 19:05 50.80193 20.06019 14113 ft 313 kts 191°
2026-05-07 19:06 50.77981 20.05757 13494 ft 322 kts 184°
2026-05-07 19:06 50.73539 20.05648 12674 ft 319 kts 182°
2026-05-07 19:06 50.72042 20.05607 12441 ft 317 kts 183°
2026-05-07 19:07 50.69133 20.05507 11982 ft 314 kts 183°
2026-05-07 19:07 50.66956 20.05417 11634 ft 312 kts 184°
2026-05-07 19:07 50.64790 20.05320 11276 ft 311 kts 184°
2026-05-07 19:07 50.62632 20.05220 10958 ft 308 kts 184°
2026-05-07 19:08 50.60516 20.05119 10602 ft 300 kts 184°
2026-05-07 19:08 50.58413 20.05017 9835 ft 307 kts 184°
2026-05-07 19:08 50.56966 20.04946 9292 ft 310 kts 184°
2026-05-07 19:08 50.54807 20.04840 8655 ft 309 kts 184°
2026-05-07 19:09 50.52711 20.04739 8116 ft 306 kts 184°
2026-05-07 19:09 50.50594 20.04637 7570 ft 303 kts 184°
2026-05-07 19:09 50.48483 20.04534 7016 ft 307 kts 184°
2026-05-07 19:09 50.46360 20.04431 6739 ft 303 kts 184°
2026-05-07 19:10 50.44262 20.04323 6444 ft 298 kts 185°
2026-05-07 19:10 50.42182 20.04201 5935 ft 302 kts 185°
2026-05-07 19:10 50.40084 20.04075 5595 ft 300 kts 185°
2026-05-07 19:10 50.38003 20.03951 5292 ft 298 kts 184°
2026-05-07 19:11 50.35934 20.03828 5043 ft 297 kts 184°
2026-05-07 19:11 50.33845 20.03705 5016 ft 302 kts 184°
2026-05-07 19:11 50.31754 20.03583 4996 ft 300 kts 184°
2026-05-07 19:11 50.29680 20.03467 4987 ft 297 kts 183°
2026-05-07 19:12 50.27609 20.03771 5001 ft 300 kts 171°
2026-05-07 19:12 50.25565 20.04466 5002 ft 302 kts 169°
2026-05-07 19:12 50.23525 20.05266 4997 ft 303 kts 167°
2026-05-07 19:12 50.21490 20.06104 4996 ft 303 kts 167°
2026-05-07 19:13 50.19467 20.06942 4951 ft 294 kts 169°
2026-05-07 19:13 50.17515 20.07552 4865 ft 278 kts 172°
2026-05-07 19:13 50.15707 20.08077 4900 ft 254 kts 172°
2026-05-07 19:13 50.14030 20.08131 4723 ft 230 kts 199°
2026-05-07 19:14 50.12711 20.07075 4628 ft 206 kts 222°
2026-05-07 19:14 50.11792 20.05508 4504 ft 187 kts 239°
2026-05-07 19:14 50.11286 20.03765 4267 ft 169 kts 256°
2026-05-07 19:14 50.11027 20.02052 3942 ft 160 kts 259°
2026-05-07 19:15 50.10792 20.00349 3471 ft 162 kts 259°
2026-05-07 19:15 50.10554 19.98615 3233 ft 163 kts 260°
2026-05-07 19:15 50.10325 19.96942 3126 ft 152 kts 260°
2026-05-07 19:15 50.10106 19.95347 2718 ft 151 kts 259°
2026-05-07 19:16 50.09885 19.93738 2271 ft 154 kts 259°
2026-05-07 19:16 50.09660 19.92099 1838 ft 154 kts 258°
2026-05-07 19:16 50.09439 19.90492 1434 ft 154 kts 257°
2026-05-07 19:16 50.09208 19.88870 1268 ft 156 kts 256°
2026-05-07 19:17 50.08986 19.87208 1231 ft 157 kts 257°
2026-05-07 19:17 50.08762 19.85551 1154 ft 155 kts 256°
2026-05-07 19:17 50.08531 19.83933 1057 ft 152 kts 256°
2026-05-07 19:17 50.08311 19.82336 992 ft 151 kts 257°
2026-05-07 19:18 50.08087 19.80733 880 ft 152 kts 257°
2026-05-07 19:18 50.07872 19.79181 799 ft 132 kts 258°
2026-05-07 19:18 50.07724 19.78116 797 ft 70 kts 257°
2026-05-07 19:18 50.07661 19.77680 798 ft 26 kts 257°
2026-05-07 19:19 50.07614 19.77360 799 ft 26 kts 257°
2026-05-07 19:19 50.07570 19.77071 801 ft 34 kts 256°
2026-05-07 19:19 50.07468 19.76864 800 ft 22 kts 181°
2026-05-07 19:19 50.07376 19.76887 799 ft 0 kts 164°
2026-05-07 19:20 50.07368 19.76891 799 ft 7 kts 164°
2026-05-07 19:20 50.07324 19.76947 799 ft 9 kts 111°
2026-05-07 19:20 50.07326 19.77059 799 ft 12 kts 80°
2026-05-07 19:21 50.07341 19.77185 799 ft 13 kts 78°
2026-05-07 19:21 50.07364 19.77364 799 ft 19 kts 78°
2026-05-07 19:21 50.07392 19.77557 799 ft 18 kts 77°
2026-05-07 19:21 50.07430 19.77811 799 ft 29 kts 78°
2026-05-07 19:22 50.07469 19.78115 799 ft 28 kts 78°
2026-05-07 19:22 50.07508 19.78398 799 ft 26 kts 78°
2026-05-07 19:22 50.07545 19.78665 799 ft 24 kts 78°
2026-05-07 19:22 50.07579 19.78913 799 ft 23 kts 78°
2026-05-07 19:23 50.07612 19.79152 799 ft 22 kts 78°
2026-05-07 19:23 50.07644 19.79385 799 ft 22 kts 78°
2026-05-07 19:23 50.07674 19.79584 799 ft 11 kts 76°
2026-05-07 19:23 50.07655 19.79690 799 ft 11 kts 144°
2026-05-07 19:24 50.07584 19.79722 799 ft 11 kts 168°
2026-05-07 19:24 50.07513 19.79744 799 ft 10 kts 168°
2026-05-07 19:24 50.07440 19.79770 799 ft 14 kts 168°
2026-05-07 19:24 50.07384 19.79809 799 ft 5 kts 127°
2026-05-07 19:25 50.07375 19.79828 799 ft 2 kts 131°
2026-05-07 19:25 50.07342 19.79867 799 ft 7 kts 159°
2026-05-07 19:25 50.07298 19.79884 799 ft 5 kts 167°
2026-05-07 19:25 50.07288 19.79888 799 ft 1 kts 167°
2026-05-07 19:26 50.07287 19.79888 799 ft 0 kts 167°